,,Stat6,,Stat2,,Stat8,,Stat9,,Stat10,,Wind1,,Wind1,
time,status,PA1M_AVG,status,PR1M_SUM,status,RH1M_AVG,status,SR1M_AVG,status,TA1M_AVG,status,W1dAve1m,status,W1sAve1m,
2008-05-15, 00:00:00,VALID,918.98,VALID,0,VALID,99.882,VALID,0.101885,VALID,18.4066,VALID,106,VALID,0,
2008-05-15, 00:01:00,VALID,918.976,VALID,0,VALID,99.718,VALID,0.0509425,VALID,18.4265,VALID,106,VALID,0,
2008-05-15, 00:02:00,VALID,918.997,VALID,0,VALID,99.512,VALID,0.0169808,VALID,18.4369,VALID,106,VALID,0,
2008-05-15, 00:03:00,VALID,919.001,VALID,0,VALID,99.3149,VALID,-0.0509425,VALID,18.4349,VALID,106,VALID,0,
2008-05-15, 00:04:00,VALID,918.996,VALID,0,VALID,99.0415,VALID,-0.0509425,VALID,18.3985,VALID,106,VALID,0,
2008-05-15, 00:05:00,VALID,918.994,VALID,0,VALID,99.0605,VALID,-0.0849042,VALID,18.3959,VALID,106,VALID,0,
2008-05-15, 00:06:00,VALID,918.986,VALID,0,VALID,98.9893,VALID,-0.0679233,VALID,18.3918,VALID,106,VALID,0,
2008-05-15, 00:07:00,VALID,918.974,VALID,0,VALID,98.8774,VALID,-0.0339617,VALID,18.392,VALID,106,VALID,0,
2008-05-15, 00:08:00,VALID,918.965,VALID,0,VALID,98.8291,VALID,-0.0169808,VALID,18.4017,VALID,106,VALID,0,
2008-05-15, 00:09:00,VALID,918.942,VALID,0,VALID,98.7541,VALID,-0.0679233,VALID,18.4147,VALID,106,VALID,0,
2008-05-15, 00:10:00,VALID,918.925,VALID,0,VALID,98.4985,VALID,-0.0339617,VALID,18.4182,VALID,106,VALID,0,
2008-05-15, 00:11:00,VALID,918.916,VALID,0,VALID,98.5176,VALID,-0.0679233,VALID,18.4177,VALID,106,VALID,0,
2008-05-15, 00:12:00,VALID,918.914,VALID,0,VALID,98.5443,VALID,-0.0339617,VALID,18.4437,VALID,106,VALID,0,
2008-05-15, 00:13:00,VALID,918.923,VALID,0,VALID,98.6307,VALID,-0.0339617,VALID,18.4666,VALID,106,VALID,0,
2008-05-15, 00:14:00,VALID,918.913,VALID,0,VALID,98.3777,VALID,0,VALID,18.4631,VALID,106,VALID,0,
2008-05-15, 00:15:00,VALID,918.899,VALID,0,VALID,98.2543,VALID,-0.0339617,VALID,18.4404,VALID,106,VALID,0,
2008-05-15, 00:16:00,VALID,918.89,VALID,0,VALID,98.2874,VALID,-0.0169808,VALID,18.4406,VALID,106,VALID,0,
2008-05-15, 00:17:00,VALID,918.866,VALID,0,VALID,98.281,VALID,-0.0169808,VALID,18.4566,VALID,106,VALID,0,
2008-05-15, 00:18:00,VALID,918.844,VALID,0,VALID,97.8106,VALID,-0.0339617,VALID,18.4244,VALID,106,VALID,0,
2008-05-15, 00:19:00,VALID,918.826,VALID,0,VALID,97.7228,VALID,-0.0169808,VALID,18.3596,VALID,106,VALID,0,
2008-05-15, 00:20:00,VALID,918.81,VALID,0,VALID,97.8856,VALID,-0.0339617,VALID,18.3396,VALID,106,VALID,0,
2008-05-15, 00:21:00,VALID,918.812,VALID,0,VALID,97.8716,VALID,-0.0339617,VALID,18.3239,VALID,106,VALID,0,
2008-05-15, 00:22:00,VALID,918.802,VALID,0,VALID,98.0242,VALID,-0.0169808,VALID,18.3142,VALID,106,VALID,0,
2008-05-15, 00:23:00,VALID,918.779,VALID,0,VALID,98.0725,VALID,-0.0509425,VALID,18.3077,VALID,106,VALID,0,
2008-05-15, 00:24:00,VALID,918.78,VALID,0,VALID,98.159,VALID,-0.0169808,VALID,18.3169,VALID,106,VALID,0,
2008-05-15, 00:25:00,VALID,918.757,VALID,0,VALID,97.9657,VALID,-0.0509425,VALID,18.3301,VALID,106,VALID,0,
2008-05-15, 00:26:00,VALID,918.736,VALID,0,VALID,97.7889,VALID,-0.0169808,VALID,18.2915,VALID,106,VALID,0,
2008-05-15, 00:27:00,VALID,918.744,VALID,0,VALID,97.8779,VALID,0,VALID,18.2783,VALID,106,VALID,0,
2008-05-15, 00:28:00,VALID,918.736,VALID,0,VALID,97.8284,VALID,-0.0509425,VALID,18.2718,VALID,106,VALID,0,
2008-05-15, 00:29:00,VALID,918.73,VALID,0,VALID,97.9136,VALID,-0.0169808,VALID,18.2685,VALID,106,VALID,0,
2008-05-15, 00:30:00,VALID,918.705,VALID,0,VALID,98.1285,VALID,-0.0509425,VALID,18.3044,VALID,106,VALID,0,
2008-05-15, 00:31:00,VALID,918.678,VALID,0,VALID,98.1081,VALID,-0.0169808,VALID,18.3524,VALID,106,VALID,0,
2008-05-15, 00:32:00,VALID,918.656,VALID,0,VALID,98.042,VALID,-0.0339617,VALID,18.3983,VALID,106,VALID,0,
2008-05-15, 00:33:00,VALID,918.635,VALID,0,VALID,97.9059,VALID,-0.0679233,VALID,18.4179,VALID,106,VALID,0,
2008-05-15, 00:34:00,VALID,918.618,VALID,0,VALID,97.6923,VALID,-0.0509425,VALID,18.4244,VALID,106,VALID,0,
2008-05-15, 00:35:00,VALID,918.611,VALID,0,VALID,97.6516,VALID,-0.0509425,VALID,18.4015,VALID,106,VALID,0,
2008-05-15, 00:36:00,VALID,918.595,VALID,0,VALID,97.8589,VALID,-0.0339617,VALID,18.4272,VALID,106,VALID,0,
2008-05-15, 00:37:00,VALID,918.581,VALID,0,VALID,97.7699,VALID,-0.0339617,VALID,18.4342,VALID,106,VALID,0,
2008-05-15, 00:38:00,VALID,918.566,VALID,0,VALID,97.8233,VALID,-0.0679233,VALID,18.4247,VALID,106,VALID,0,
2008-05-15, 00:39:00,VALID,918.539,VALID,0,VALID,97.6732,VALID,-0.0339617,VALID,18.3883,VALID,106,VALID,0,
2008-05-15, 00:40:00,VALID,918.518,VALID,0,VALID,97.5664,VALID,-0.0509425,VALID,18.3336,VALID,106,VALID,0,
2008-05-15, 00:41:00,VALID,918.5,VALID,0,VALID,97.6936,VALID,-0.0339617,VALID,18.2785,VALID,106,VALID,0,
2008-05-15, 00:42:00,VALID,918.493,VALID,0,VALID,97.8996,VALID,-0.0169808,VALID,18.2525,VALID,106,VALID,0,
2008-05-15, 00:43:00,VALID,918.503,VALID,0,VALID,97.9733,VALID,-0.0339617,VALID,18.2328,VALID,106,VALID,0,
2008-05-15, 00:44:00,VALID,918.487,VALID,0,VALID,98.0763,VALID,-0.0509425,VALID,18.2201,VALID,106,VALID,0,
2008-05-15, 00:45:00,VALID,918.458,VALID,0,VALID,98.1641,VALID,-0.0509425,VALID,18.2037,VALID,106,VALID,0,
2008-05-15, 00:46:00,VALID,918.444,VALID,0,VALID,98.4985,VALID,-0.0679233,VALID,18.2266,VALID,106,VALID,0,
2008-05-15, 00:47:00,VALID,918.432,VALID,0,VALID,98.5837,VALID,-0.0509425,VALID,18.2553,VALID,106,VALID,0,
2008-05-15, 00:48:00,VALID,918.423,VALID,0,VALID,98.4883,VALID,-0.0339617,VALID,18.2977,VALID,106,VALID,0,
2008-05-15, 00:49:00,VALID,918.409,VALID,0,VALID,98.2225,VALID,-0.0169808,VALID,18.2915,VALID,106,VALID,0,
2008-05-15, 00:50:00,VALID,918.402,VALID,0,VALID,97.8423,VALID,0.0169808,VALID,18.2396,VALID,106,VALID,0,
2008-05-15, 00:51:00,VALID,918.387,VALID,0,VALID,97.6745,VALID,0,VALID,18.1321,VALID,106,VALID,0,
2008-05-15, 00:52:00,VALID,918.388,VALID,0,VALID,97.9072,VALID,0,VALID,18.061,VALID,106,VALID,0,
2008-05-15, 00:53:00,VALID,918.37,VALID,0,VALID,98.2518,VALID,0,VALID,18.0246,VALID,106,VALID,0,
2008-05-15, 00:54:00,VALID,918.362,VALID,0,VALID,98.4375,VALID,-0.0169808,VALID,18.0121,VALID,106,VALID,0,
2008-05-15, 00:55:00,VALID,918.352,VALID,0,VALID,98.6549,VALID,0,VALID,18.0253,VALID,106,VALID,0,
2008-05-15, 00:56:00,VALID,918.35,VALID,0,VALID,98.9219,VALID,-0.0169808,VALID,18.0612,VALID,106,VALID,0,
2008-05-15, 00:57:00,VALID,918.345,VALID,0,VALID,99.0453,VALID,-0.0339617,VALID,18.0932,VALID,106,VALID,0,
2008-05-15, 00:58:00,VALID,918.331,VALID,0,VALID,99.0516,VALID,0,VALID,18.1349,VALID,106,VALID,0,
2008-05-15, 00:59:00,VALID,918.315,VALID,0,VALID,99.2894,VALID,-0.0339617,VALID,18.2104,VALID,106,VALID,0,
2008-05-15, 01:00:00,VALID,918.321,VALID,0,VALID,99.2525,VALID,-0.0679233,VALID,18.2748,VALID,106,VALID,0,
2008-05-15, 01:01:00,VALID,918.317,VALID,0,VALID,99.1012,VALID,-0.0339617,VALID,18.3304,VALID,106,VALID,0,
2008-05-15, 01:02:00,VALID,918.306,VALID,0,VALID,98.6969,VALID,-0.0339617,VALID,18.3209,VALID,106,VALID,0,
2008-05-15, 01:03:00,VALID,918.302,VALID,0,VALID,98.3408,VALID,-0.0339617,VALID,18.2977,VALID,106,VALID,0,
2008-05-15, 01:04:00,VALID,918.301,VALID,0,VALID,98.3281,VALID,-0.0339617,VALID,18.2845,VALID,106,VALID,0,
2008-05-15, 01:05:00,VALID,918.282,VALID,0,VALID,98.2747,VALID,-0.0509425,VALID,18.2556,VALID,106,VALID,0,
2008-05-15, 01:06:00,VALID,918.29,VALID,0,VALID,98.1806,VALID,-0.0169808,VALID,18.2164,VALID,106,VALID,0,
2008-05-15, 01:07:00,VALID,918.294,VALID,0,VALID,98.295,VALID,0,VALID,18.184,VALID,106,VALID,0,
2008-05-15, 01:08:00,VALID,918.291,VALID,0,VALID,98.4387,VALID,-0.0169808,VALID,18.1877,VALID,106,VALID,0,
2008-05-15, 01:09:00,VALID,918.287,VALID,0,VALID,98.5315,VALID,-0.0509425,VALID,18.1842,VALID,106,VALID,0,
2008-05-15, 01:10:00,VALID,918.271,VALID,0,VALID,98.6752,VALID,-0.0509425,VALID,18.2104,VALID,106,VALID,0,
2008-05-15, 01:11:00,VALID,918.267,VALID,0,VALID,98.8329,VALID,-0.0169808,VALID,18.2264,VALID,103,VALID,0,
2008-05-15, 01:12:00,VALID,918.258,VALID,0,VALID,98.6613,VALID,-0.0169808,VALID,18.2396,VALID,99,VALID,0,
2008-05-15, 01:13:00,VALID,918.26,VALID,0,VALID,97.9212,VALID,-0.0679233,VALID,18.1196,VALID,99,VALID,0,
2008-05-15, 01:14:00,VALID,918.267,VALID,0,VALID,98.206,VALID,-0.0339617,VALID,18.061,VALID,99,VALID,0,
2008-05-15, 01:15:00,VALID,918.273,VALID,0,VALID,98.6231,VALID,-0.0339617,VALID,18.058,VALID,98,VALID,0,
2008-05-15, 01:16:00,VALID,918.269,VALID,0,VALID,98.571,VALID,-0.0509425,VALID,18.0644,VALID,98,VALID,0,
2008-05-15, 01:17:00,VALID,918.266,VALID,0,VALID,98.777,VALID,-0.0339617,VALID,18.0614,VALID,98,VALID,0,
2008-05-15, 01:18:00,VALID,918.257,VALID,0,VALID,99.4738,VALID,-0.0509425,VALID,18.1233,VALID,98,VALID,0,
2008-05-15, 01:19:00,VALID,918.244,VALID,0,VALID,99.4891,VALID,-0.101885,VALID,18.1814,VALID,98,VALID,0,
2008-05-15, 01:20:00,VALID,918.238,VALID,0,VALID,99.2119,VALID,-0.0679233,VALID,18.162,VALID,98,VALID,0,
2008-05-15, 01:21:00,VALID,918.22,VALID,0,VALID,99.1915,VALID,-0.0339617,VALID,18.152,VALID,98,VALID,0,
2008-05-15, 01:22:00,VALID,918.212,VALID,0,VALID,99.1699,VALID,-0.0339617,VALID,18.139,VALID,98,VALID,0,
2008-05-15, 01:23:00,VALID,918.231,VALID,0,VALID,99.0415,VALID,-0.0849042,VALID,18.1228,VALID,98,VALID,0,
2008-05-15, 01:24:00,VALID,918.232,VALID,0,VALID,99.5094,VALID,-0.0509425,VALID,18.139,VALID,98,VALID,0,
2008-05-15, 01:25:00,VALID,918.211,VALID,0,VALID,99.5628,VALID,-0.0339617,VALID,18.1747,VALID,99,VALID,0,
2008-05-15, 01:26:00,VALID,918.198,VALID,0,VALID,99.306,VALID,-0.0849042,VALID,18.1779,VALID,98,VALID,0,
2008-05-15, 01:27:00,VALID,918.18,VALID,0,VALID,99.3263,VALID,-0.0509425,VALID,18.1812,VALID,97,VALID,0,
2008-05-15, 01:28:00,VALID,918.168,VALID,0,VALID,99.5666,VALID,-0.0509425,VALID,18.2266,VALID,96,VALID,0,
2008-05-15, 01:29:00,VALID,918.153,VALID,0,VALID,99.5259,VALID,-0.0339617,VALID,18.2491,VALID,96,VALID,0,
2008-05-15, 01:30:00,VALID,918.127,VALID,0,VALID,99.6722,VALID,-0.0509425,VALID,18.2882,VALID,86,VALID,0.0446948,
2008-05-15, 01:31:00,VALID,918.105,VALID,0,VALID,99.8121,VALID,-0.0339617,VALID,18.3401,VALID,33,VALID,0.153274,
2008-05-15, 01:32:00,VALID,918.094,VALID,0,VALID,99.7358,VALID,-0.0339617,VALID,18.3827,VALID,32,VALID,0,
2008-05-15, 01:33:00,VALID,918.082,VALID,0,VALID,99.8108,VALID,-0.0679233,VALID,18.4115,VALID,16,VALID,0.374092,
2008-05-15, 01:34:00,VALID,918.058,VALID,0,VALID,99.9303,VALID,-0.0339617,VALID,18.499,VALID,10,VALID,0.855283,
2008-05-15, 01:35:00,VALID,918.047,VALID,0,VALID,99.4306,VALID,-0.0169808,VALID,18.5053,VALID,19,VALID,1.05566,
2008-05-15, 01:36:00,VALID,918.039,VALID,0,VALID,99.4446,VALID,-0.0509425,VALID,18.5442,VALID,7,VALID,0.948509,
2008-05-15, 01:37:00,VALID,918.018,VALID,0,VALID,99.8906,VALID,-0.0169808,VALID,18.6253,VALID,5,VALID,1.04531,
2008-05-15, 01:38:00,VALID,917.991,VALID,0,VALID,100,VALID,-0.0679233,VALID,18.8037,VALID,18,VALID,1.18324,
2008-05-15, 01:39:00,VALID,917.995,VALID,0,VALID,99.7022,VALID,-0.0509425,VALID,18.9466,VALID,3,VALID,0.477289,
2008-05-15, 01:40:00,VALID,917.987,VALID,0,VALID,99.0618,VALID,-0.0339617,VALID,18.9531,VALID,359,VALID,0.407738,
2008-05-15, 01:41:00,VALID,917.975,VALID,0,VALID,99.0504,VALID,-0.0339617,VALID,19.008,VALID,16,VALID,0.869549,
2008-05-15, 01:42:00,VALID,917.966,VALID,0,VALID,98.9563,VALID,-0.0339617,VALID,19.0829,VALID,337,VALID,0.39184,
2008-05-15, 01:43:00,VALID,917.949,VALID,0,VALID,98.3739,VALID,-0.0679233,VALID,19.0699,VALID,333,VALID,0.0550781,
2008-05-15, 01:44:00,VALID,917.947,VALID,0,VALID,98.3294,VALID,-0.0679233,VALID,19.0894,VALID,10,VALID,0.323219,
2008-05-15, 01:45:00,VALID,917.944,VALID,0,VALID,98.1895,VALID,-0.0339617,VALID,19.0926,VALID,15,VALID,0.508168,
2008-05-15, 01:46:00,VALID,917.947,VALID,0,VALID,98.0941,VALID,-0.0169808,VALID,19.0991,VALID,18,VALID,0.610828,
2008-05-15, 01:47:00,VALID,917.948,VALID,0,VALID,98.0661,VALID,0,VALID,19.0921,VALID,15,VALID,0.679869,
2008-05-15, 01:48:00,VALID,917.942,VALID,0,VALID,97.8652,VALID,-0.0339617,VALID,19.0599,VALID,14,VALID,0.493902,
2008-05-15, 01:49:00,VALID,917.935,VALID,0,VALID,97.8284,VALID,-0.0339617,VALID,19.0275,VALID,14,VALID,0.0497622,
2008-05-15, 01:50:00,VALID,917.93,VALID,0,VALID,98.0077,VALID,-0.0169808,VALID,19.0305,VALID,15,VALID,0,
2008-05-15, 01:51:00,VALID,917.926,VALID,0,VALID,97.9479,VALID,-0.0509425,VALID,19.0048,VALID,15,VALID,0,
2008-05-15, 01:52:00,VALID,917.916,VALID,0,VALID,98.0483,VALID,0,VALID,18.9756,VALID,20,VALID,0,
2008-05-15, 01:53:00,VALID,917.903,VALID,0,VALID,98.1564,VALID,-0.0509425,VALID,18.9596,VALID,20,VALID,0,
2008-05-15, 01:54:00,VALID,917.883,VALID,0,VALID,98.1946,VALID,0,VALID,18.9334,VALID,20,VALID,0,
2008-05-15, 01:55:00,VALID,917.866,VALID,0,VALID,98.4108,VALID,-0.0509425,VALID,18.9269,VALID,20,VALID,0,
2008-05-15, 01:56:00,VALID,917.845,VALID,0,VALID,98.4629,VALID,0,VALID,18.9142,VALID,21,VALID,0,
2008-05-15, 01:57:00,VALID,917.848,VALID,0,VALID,98.4387,VALID,-0.0339617,VALID,18.8913,VALID,23,VALID,0,
2008-05-15, 01:58:00,VALID,917.856,VALID,0,VALID,98.4018,VALID,-0.0509425,VALID,18.8688,VALID,23,VALID,0,
2008-05-15, 01:59:00,VALID,917.852,VALID,0,VALID,98.4425,VALID,-0.0339617,VALID,18.8526,VALID,23,VALID,0,
2008-05-15, 02:00:00,VALID,917.821,VALID,0,VALID,98.3917,VALID,-0.0509425,VALID,18.8364,VALID,24,VALID,0,
2008-05-15, 02:01:00,VALID,917.825,VALID,0,VALID,98.0814,VALID,-0.0339617,VALID,18.7685,VALID,25,VALID,0,
2008-05-15, 02:02:00,VALID,917.804,VALID,0,VALID,98.9079,VALID,-0.0679233,VALID,18.8039,VALID,24,VALID,0.429688,
2008-05-15, 02:03:00,VALID,917.799,VALID,0,VALID,98.7732,VALID,-0.0509425,VALID,18.8204,VALID,37,VALID,0.167696,
2008-05-15, 02:04:00,VALID,917.769,VALID,0,VALID,98.4832,VALID,-0.0339617,VALID,18.7782,VALID,37,VALID,0.0012718,
2008-05-15, 02:05:00,VALID,917.748,VALID,0,VALID,98.9677,VALID,-0.0169808,VALID,18.8037,VALID,37,VALID,0,
2008-05-15, 02:06:00,VALID,917.729,VALID,0,VALID,98.8736,VALID,-0.0169808,VALID,18.7807,VALID,37,VALID,0,
2008-05-15, 02:07:00,VALID,917.706,VALID,0,VALID,99.1038,VALID,-0.0339617,VALID,18.7743,VALID,37,VALID,0,
2008-05-15, 02:08:00,VALID,917.69,VALID,0,VALID,99.3034,VALID,-0.0509425,VALID,18.8074,VALID,37,VALID,0,
2008-05-15, 02:09:00,VALID,917.705,VALID,0,VALID,99.0326,VALID,0.0339617,VALID,18.758,VALID,37,VALID,0,
2008-05-15, 02:10:00,VALID,917.706,VALID,0,VALID,99.0237,VALID,-0.0169808,VALID,18.7156,VALID,37,VALID,0,
2008-05-15, 02:11:00,VALID,917.723,VALID,0,VALID,99.1368,VALID,0,VALID,18.6904,VALID,36,VALID,0,
2008-05-15, 02:12:00,VALID,917.723,VALID,0,VALID,99.9158,VALID,0,VALID,18.7321,VALID,35,VALID,0,
2008-05-15, 02:13:00,VALID,917.707,VALID,0,VALID,100,VALID,0.0169808,VALID,18.7708,VALID,35,VALID,0,
2008-05-15, 02:14:00,VALID,917.708,VALID,0,VALID,100,VALID,0,VALID,18.7743,VALID,35,VALID,0,
2008-05-15, 02:15:00,VALID,917.703,VALID,0,VALID,100,VALID,0,VALID,18.8266,VALID,30,VALID,0,
2008-05-15, 02:16:00,VALID,917.664,VALID,0,VALID,100,VALID,0.0339617,VALID,18.8646,VALID,26,VALID,0,
2008-05-15, 02:17:00,VALID,917.664,VALID,0,VALID,100,VALID,-0.0169808,VALID,18.8848,VALID,26,VALID,0,
2008-05-15, 02:18:00,VALID,917.651,VALID,0,VALID,100,VALID,-0.0339617,VALID,18.9432,VALID,19,VALID,0,
2008-05-15, 02:19:00,VALID,917.639,VALID,0,VALID,100,VALID,-0.0169808,VALID,18.9823,VALID,18,VALID,0,
2008-05-15, 02:20:00,VALID,917.642,VALID,0,VALID,100,VALID,0,VALID,18.9529,VALID,18,VALID,0,
2008-05-15, 02:21:00,VALID,917.665,VALID,0,VALID,99.9977,VALID,-0.0169808,VALID,18.9494,VALID,18,VALID,0,
2008-05-15, 02:22:00,VALID,917.653,VALID,0,VALID,99.9794,VALID,-0.0169808,VALID,18.9402,VALID,18,VALID,0,
2008-05-15, 02:23:00,VALID,917.642,VALID,0,VALID,100,VALID,-0.0169808,VALID,18.9629,VALID,16,VALID,0.0876736,
2008-05-15, 02:24:00,VALID,917.624,VALID,0,VALID,100,VALID,0,VALID,18.9981,VALID,13,VALID,0,
2008-05-15, 02:25:00,VALID,917.617,VALID,0,VALID,100,VALID,0,VALID,19.011,VALID,13,VALID,0,
2008-05-15, 02:26:00,VALID,917.608,VALID,0,VALID,99.8128,VALID,0,VALID,18.9851,VALID,13,VALID,0,
2008-05-15, 02:27:00,VALID,917.597,VALID,0,VALID,99.545,VALID,-0.0169808,VALID,18.9436,VALID,13,VALID,0,
2008-05-15, 02:28:00,VALID,917.568,VALID,0,VALID,99.4268,VALID,0,VALID,18.901,VALID,22,VALID,0.319425,
2008-05-15, 02:29:00,VALID,917.547,VALID,0,VALID,99.9786,VALID,0.0169808,VALID,18.9791,VALID,10,VALID,1.14397,
2008-05-15, 02:30:00,VALID,917.535,VALID,0,VALID,100,VALID,-0.0169808,VALID,19.0889,VALID,18,VALID,0.526867,
2008-05-15, 02:31:00,VALID,917.548,VALID,0,VALID,100,VALID,-0.0339617,VALID,19.1153,VALID,22,VALID,0,
2008-05-15, 02:32:00,VALID,917.571,VALID,0,VALID,100,VALID,-0.0169808,VALID,19.1737,VALID,9,VALID,0,
2008-05-15, 02:33:00,VALID,917.571,VALID,0,VALID,100,VALID,0,VALID,19.2194,VALID,10,VALID,0,
2008-05-15, 02:34:00,VALID,917.557,VALID,0,VALID,100,VALID,-0.0169808,VALID,19.2289,VALID,10,VALID,0.0759943,
2008-05-15, 02:35:00,VALID,917.539,VALID,0,VALID,99.9741,VALID,0,VALID,19.1997,VALID,10,VALID,0.150985,
2008-05-15, 02:36:00,VALID,917.531,VALID,0,VALID,100,VALID,0,VALID,19.2219,VALID,9,VALID,0.265988,
2008-05-15, 02:37:00,VALID,917.536,VALID,0,VALID,100,VALID,0,VALID,19.2449,VALID,14,VALID,0,
2008-05-15, 02:38:00,VALID,917.536,VALID,0,VALID,100,VALID,-0.0169808,VALID,19.2676,VALID,19,VALID,0.0561756,
2008-05-15, 02:39:00,VALID,917.545,VALID,0,VALID,100,VALID,0,VALID,19.3067,VALID,15,VALID,0.376598,
2008-05-15, 02:40:00,VALID,917.532,VALID,0,VALID,100,VALID,-0.0169808,VALID,19.3327,VALID,28,VALID,1.83117,
2008-05-15, 02:41:00,VALID,917.526,VALID,0,VALID,100,VALID,-0.0339617,VALID,19.3589,VALID,20,VALID,1.77397,
2008-05-15, 02:42:00,VALID,917.539,VALID,0,VALID,100,VALID,0.0169808,VALID,19.3941,VALID,23,VALID,1.10621,
2008-05-15, 02:43:00,VALID,917.543,VALID,0,VALID,100,VALID,0,VALID,19.4203,VALID,29,VALID,0.0294922,
2008-05-15, 02:44:00,VALID,917.541,VALID,0,VALID,100,VALID,0,VALID,19.4462,VALID,352,VALID,0,
2008-05-15, 02:45:00,VALID,917.533,VALID,0,VALID,100,VALID,-0.0509425,VALID,19.4787,VALID,347,VALID,0,
2008-05-15, 02:46:00,VALID,917.522,VALID,0,VALID,100,VALID,0,VALID,19.5176,VALID,359,VALID,0.0499637,
2008-05-15, 02:47:00,VALID,917.523,VALID,0,VALID,100,VALID,0,VALID,19.5146,VALID,4,VALID,0.00093006,
2008-05-15, 02:48:00,VALID,917.54,VALID,0,VALID,100,VALID,-0.0339617,VALID,19.5176,VALID,3,VALID,0.000381098,
2008-05-15, 02:49:00,VALID,917.536,VALID,0,VALID,100,VALID,-0.0339617,VALID,19.5176,VALID,15,VALID,0.685404,
2008-05-15, 02:50:00,VALID,917.525,VALID,0,VALID,99.999,VALID,-0.0679233,VALID,19.5184,VALID,21,VALID,1.52306,
2008-05-15, 02:51:00,VALID,917.516,VALID,0,VALID,100,VALID,-0.0169808,VALID,19.5763,VALID,18,VALID,1.21693,
2008-05-15, 02:52:00,VALID,917.496,VALID,0,VALID,100,VALID,0,VALID,19.5695,VALID,25,VALID,0.37035,
2008-05-15, 02:53:00,VALID,917.471,VALID,0,VALID,99.999,VALID,-0.0339617,VALID,19.5668,VALID,11,VALID,0.516369,
2008-05-15, 02:54:00,VALID,917.463,VALID,0,VALID,99.9456,VALID,-0.0509425,VALID,19.5471,VALID,338,VALID,0.0143229,
2008-05-15, 02:55:00,VALID,917.435,VALID,0,VALID,99.8769,VALID,-0.0339617,VALID,19.5273,VALID,338,VALID,0.48609,
2008-05-15, 02:56:00,VALID,917.42,VALID,0,VALID,99.7497,VALID,0.0169808,VALID,19.4854,VALID,5,VALID,0.679688,
2008-05-15, 02:57:00,VALID,917.438,VALID,0,VALID,99.8184,VALID,-0.0169808,VALID,19.4597,VALID,20,VALID,0.548242,
2008-05-15, 02:58:00,VALID,917.443,VALID,0,VALID,99.9074,VALID,-0.0169808,VALID,19.4233,VALID,11,VALID,0.16424,
2008-05-15, 02:59:00,VALID,917.449,VALID,0,VALID,99.9952,VALID,-0.0509425,VALID,19.4397,VALID,8,VALID,0.776414,
2008-05-15, 03:00:00,VALID,917.452,VALID,0,VALID,100,VALID,-0.0169808,VALID,19.4592,VALID,359,VALID,0.701853,
2008-05-15, 03:01:00,VALID,917.458,VALID,0,VALID,100,VALID,0,VALID,19.4814,VALID,350,VALID,0.357376,
2008-05-15, 03:02:00,VALID,917.468,VALID,0,VALID,100,VALID,0,VALID,19.4849,VALID,354,VALID,0.0198038,
2008-05-15, 03:03:00,VALID,917.468,VALID,0,VALID,100,VALID,0.0169808,VALID,19.4525,VALID,12,VALID,0,
2008-05-15, 03:04:00,VALID,917.451,VALID,0,VALID,100,VALID,-0.0169808,VALID,19.4041,VALID,12,VALID,0,
2008-05-15, 03:05:00,VALID,917.443,VALID,0,VALID,100,VALID,0,VALID,19.3846,VALID,12,VALID,0,
2008-05-15, 03:06:00,VALID,917.438,VALID,0,VALID,100,VALID,0,VALID,19.3913,VALID,12,VALID,0,
2008-05-15, 03:07:00,VALID,917.428,VALID,0,VALID,100,VALID,-0.0169808,VALID,19.3716,VALID,12,VALID,0,
2008-05-15, 03:08:00,VALID,917.416,VALID,0,VALID,100,VALID,-0.0169808,VALID,19.3554,VALID,12,VALID,0,
2008-05-15, 03:09:00,VALID,917.415,VALID,0,VALID,100,VALID,-0.0339617,VALID,19.3197,VALID,12,VALID,0,
2008-05-15, 03:10:00,VALID,917.415,VALID,0,VALID,100,VALID,-0.0509425,VALID,19.2972,VALID,12,VALID,0,
2008-05-15, 03:11:00,VALID,917.397,VALID,0,VALID,100,VALID,-0.0339617,VALID,19.2678,VALID,12,VALID,0,
2008-05-15, 03:12:00,VALID,917.394,VALID,0,VALID,100,VALID,-0.0339617,VALID,19.2518,VALID,12,VALID,0.0539253,
2008-05-15, 03:13:00,VALID,917.387,VALID,0,VALID,100,VALID,-0.0679233,VALID,19.2259,VALID,13,VALID,0.136039,
2008-05-15, 03:14:00,VALID,917.368,VALID,0,VALID,100,VALID,0,VALID,19.1865,VALID,13,VALID,0,
2008-05-15, 03:15:00,VALID,917.363,VALID,0,VALID,100,VALID,-0.0679233,VALID,19.1712,VALID,13,VALID,0,
2008-05-15, 03:16:00,VALID,917.353,VALID,0,VALID,100,VALID,-0.0679233,VALID,19.132,VALID,13,VALID,0,
2008-05-15, 03:17:00,VALID,917.325,VALID,0,VALID,100,VALID,-0.0679233,VALID,19.0507,VALID,13,VALID,0,
2008-05-15, 03:18:00,VALID,917.305,VALID,0,VALID,100,VALID,-0.0339617,VALID,19.0115,VALID,13,VALID,0,
2008-05-15, 03:19:00,VALID,917.293,VALID,0,VALID,100,VALID,-0.0339617,VALID,18.9858,VALID,13,VALID,0,
2008-05-15, 03:20:00,VALID,917.276,VALID,0,VALID,100,VALID,-0.0679233,VALID,18.9434,VALID,13,VALID,0,
2008-05-15, 03:21:00,VALID,917.276,VALID,0,VALID,100,VALID,-0.0169808,VALID,18.9077,VALID,13,VALID,0.230646,
2008-05-15, 03:22:00,VALID,917.262,VALID,0,VALID,100,VALID,-0.0169808,VALID,18.9177,VALID,13,VALID,0.0301067,
2008-05-15, 03:23:00,VALID,917.246,VALID,0,VALID,100,VALID,-0.0679233,VALID,18.9082,VALID,13,VALID,0.024891,
2008-05-15, 03:24:00,VALID,917.242,VALID,0,VALID,100,VALID,-0.0509425,VALID,18.9015,VALID,13,VALID,0.0662287,
2008-05-15, 03:25:00,VALID,917.235,VALID,0,VALID,100,VALID,-0.0339617,VALID,18.8653,VALID,13,VALID,0,
2008-05-15, 03:26:00,VALID,917.205,VALID,0,VALID,100,VALID,-0.0679233,VALID,18.8176,VALID,13,VALID,0,
2008-05-15, 03:27:00,VALID,917.202,VALID,0,VALID,100,VALID,-0.0849042,VALID,18.7717,VALID,13,VALID,0.320676,
2008-05-15, 03:28:00,VALID,917.183,VALID,0,VALID,100,VALID,-0.0849042,VALID,18.7393,VALID,13,VALID,0.349564,
2008-05-15, 03:29:00,VALID,917.159,VALID,0,VALID,100,VALID,-0.101885,VALID,18.7629,VALID,18,VALID,0,
2008-05-15, 03:30:00,VALID,917.134,VALID,0,VALID,100,VALID,-0.0849042,VALID,18.8012,VALID,32,VALID,0.548781,
2008-05-15, 03:31:00,VALID,917.114,VALID,0,VALID,100,VALID,-0.0849042,VALID,18.8306,VALID,33,VALID,0.514291,
2008-05-15, 03:32:00,VALID,917.115,VALID,0,VALID,100,VALID,-0.0509425,VALID,18.8398,VALID,39,VALID,0.655887,
2008-05-15, 03:33:00,VALID,917.103,VALID,0,VALID,100,VALID,-0.0679233,VALID,18.8758,VALID,18,VALID,0.310501,
2008-05-15, 03:34:00,VALID,917.106,VALID,0,VALID,100,VALID,-0.0849042,VALID,18.882,VALID,23,VALID,0.784856,
2008-05-15, 03:35:00,VALID,917.107,VALID,0,VALID,100,VALID,-0.0509425,VALID,18.9207,VALID,20,VALID,0.847486,
2008-05-15, 03:36:00,VALID,917.096,VALID,0,VALID,100,VALID,-0.0169808,VALID,18.9888,VALID,17,VALID,1.17671,
2008-05-15, 03:37:00,VALID,917.056,VALID,0,VALID,100,VALID,-0.0849042,VALID,19.0377,VALID,22,VALID,0.930398,
2008-05-15, 03:38:00,VALID,917.029,VALID,0,VALID,100,VALID,-0.0679233,VALID,19.0769,VALID,22,VALID,0.347929,
2008-05-15, 03:39:00,VALID,916.995,VALID,0,VALID,100,VALID,-0.0679233,VALID,19.0831,VALID,22,VALID,0.369731,
2008-05-15, 03:40:00,VALID,917.003,VALID,0,VALID,100,VALID,-0.0509425,VALID,19.0769,VALID,22,VALID,0.575521,
2008-05-15, 03:41:00,VALID,916.994,VALID,0,VALID,100,VALID,-0.101885,VALID,19.0799,VALID,22,VALID,0.147892,
2008-05-15, 03:42:00,VALID,917.012,VALID,0,VALID,100,VALID,-0.0509425,VALID,19.0762,VALID,22,VALID,0.00109012,